Weather in Shemursha

Russia / Chuvash Republic     54°53′12″N   47°31′01″E
temp.,
°C
wind,
m/s
gust,
m/s
humid.,
%
clouds,
%
prec.,
mm/h
press.,
hPa
HPBL,
m
13 june, sun
sun1300:00+15sse349591 0.0 101174
03:00+14sse239368 0.0 101148
06:00+17sse3688100 0.3 1011207
09:00+22s46691 0.5 1011675
12:00+23s5860100 1.8 10111399
15:00+24ssw6105810 1.8 10111735
18:00+21ssw497889 1.2 1011498
21:00+17s3693100 1.9 1012102
14 june, mon
mon1400:00+16s379569 0.9 1013129
03:00+15sw3795100 0.9 1014152
06:00+18sw369099 0.0 1015219
09:00+22sw347087 0.0 1015877
12:00+24sw5663100 1.1 10151272
15:00+24ssw4561100 1.1 10161392
18:00+22sw2379100 0.6 101597
21:00+18w1186100 0.8 101611
15 june, tue
tue1500:00+17nne1187100 0.0 101511
03:00+17ene119095 0.0 101511
06:00+18se1290100 1.0 1015127
09:00+19se3589100 1.9 1015181
12:00+22se117699 1.5 1014352
15:00+19nw239091 3.6 1013161
18:00+22se237717 0.0 1013782
21:00+19e2290100 0.0 101222
16 june, wed
wed1600:00+17e35935 0.0 101185
03:00+17ese3791100 0.0 1010146
06:00+19ese498282 0.0 1009245
09:00+23se4667100 0.0 1010377
12:00+26se575898 0.0 10081012
15:00+26sse44545 0.0 10081318
18:00+25se226971 0.0 100758
21:00+20sw22815 0.0 100818
17 june, thu
thu1700:00+18nw479297 0.2 1008137
03:00+16nnw5119672 1.4 1010382
06:00+16n61193100 0.0 1012543
09:00+17n7118989 0.1 1014755
12:00+21n896446 0.0 10161418
15:00+21n78603 0.0 10171664
18:00+19nne510660 0.0 1019693
21:00+15n37720 0.0 1021112